Content
SEND FEEDBACK

Daily
Averages
Monthly
Summary
United States of America

WALNUT GROVE, ALABAMA


Home > North America > United States > Alabama
Elevation: 85 feet     Latitude: 34 04N     Longitude: 086 19W

WEATHER
 
SELECT A DAY
Number of Records: 210,701;   Date Range: 3/15/06 - 10/19/14
 
SHARE

PRINT THIS DATA

[ ← Previous Day ]
WEATHER ALMANAC - MARCH 13, 2014
[ Next Day → ]
[ °C ]   °F
Weather ElementAverageHighLow
Temperature5.2 °F35.6 °F (8:35 am) (12:35 am)
Dewpoint4.2 °F30.2 °F (5:35 am) (7:00 pm)
Humidity77.6 %87 % (5:35 am)70 % (8:35 am)
Barometer30.17 in30.24 in (11:15 am)30.06 in (12:35 am)
Wind Speed8.3 mph18.4 mph (1:35 pm)
Wind Gust25.3 mph (11:35 am)
Weather ElementAverage
Visibility10 mi
Wind DirectionW (267.2 °)

Weather ElementTotal
Precipitation---
Heating Degree Days47.2 (Base 65)
Averaged from 71 records on March 13, 2014
WEATHER CONDITIONS BREAKOUT
WIND DIRECTION BREAKOUT
WEATHER BY HOUR - MARCH 13, 2014
[ °C ]   °F
Local TimeTemperatureDewpointHumidityBarometerVisibilityWind DirectionWind SpeedGust SpeedPrecipitationEventsConditions
12:35 AM0.0 °F0.0 °F30.06 in10.0 miNW (310°)8.1 mphClear
12:55 AM0.0 °F0.0 °F30.07 in10.0 miWNW (300°)5.8 mphClear
1:15 AM0.0 °F0.0 °F30.07 in10.0 miNW (310°)5.8 mphClear
1:35 AM0.0 °F0.0 °F30.07 in10.0 miNW (310°)9.2 mphScattered Clouds
1:55 AM0.0 °F0.0 °F30.07 in10.0 miNW (320°)9.2 mphClear
2:15 AM0.0 °F0.0 °F30.07 in10.0 miNW (320°)10.4 mphClear
2:35 AM0.0 °F0.0 °F30.07 in10.0 miNW (310°)9.2 mphClear
2:55 AM0.0 °F0.0 °F30.07 in10.0 miNW (320°)8.1 mphClear
3:15 AM0.0 °F0.0 °F30.07 in10.0 miNW (320°)5.8 mphClear
3:35 AM0.0 °F0.0 °F30.07 in10.0 miNW (320°)5.8 mphClear
3:55 AM0.0 °F0.0 °F30.07 in10.0 miNNW (340°)6.9 mphClear
4:15 AM0.0 °F0.0 °F30.08 in10.0 miNNW (330°)8.1 mphClear
4:35 AM0.0 °F0.0 °F30.07 in10.0 miNNW (340°)10.4 mph18.4 mphClear
4:55 AM0.0 °F0.0 °F30.09 in10.0 miNNW (340°)13.8 mph18.4 mphClear
5:15 AM0.0 °F0.0 °F30.10 in10.0 miNNW (340°)12.7 mph17.3 mphClear
5:35 AM33.8 °F30.2 °F87 %30.11 in10.0 miNNW (340°)11.5 mph17.3 mphClear
5:55 AM33.8 °F28.4 °F81 %30.12 in10.0 miNNW (330°)15.0 mph21.9 mphClear
6:15 AM33.8 °F28.4 °F81 %30.12 in10.0 miNNW (330°)12.7 mph18.4 mphClear
6:35 AM33.8 °F26.6 °F75 %30.13 in10.0 miNNW (340°)15.0 mph19.6 mphClear
6:55 AM32.0 °F26.6 °F80 %30.14 in10.0 miNNW (340°)10.4 mphClear
7:15 AM32.0 °F26.6 °F80 %30.14 in10.0 miNNW (340°)6.9 mphClear
7:35 AM32.0 °F26.6 °F80 %30.16 in10.0 miNorth (350°)5.8 mphClear
7:55 AM33.8 °F26.6 °F75 %30.17 in10.0 miNorth (350°)10.4 mphClear
8:15 AM33.8 °F26.6 °F75 %30.18 in10.0 miNorth (350°)11.5 mph18.4 mphClear
8:35 AM35.6 °F26.6 °F70 %30.19 in10.0 miNorth (360°)13.8 mphClear
8:55 AM35.6 °F26.6 °F70 %30.20 in10.0 miNorth (360°)15.0 mph18.4 mphClear
9:15 AM0.0 °F0.0 °F30.21 in10.0 miNNW (340°)12.7 mph18.4 mphClear
9:35 AM0.0 °F0.0 °F30.22 in10.0 miNNW (340°)11.5 mphClear
9:55 AM0.0 °F0.0 °F30.23 in10.0 miNW (320°)10.4 mphClear
10:15 AM0.0 °F0.0 °F30.23 in10.0 miNNW (340°)9.2 mph17.3 mphClear
10:35 AM0.0 °F0.0 °F30.23 in10.0 miNNW (340°)13.8 mphClear
10:55 AM0.0 °F0.0 °F30.23 in10.0 miNW (320°)11.5 mphClear
11:15 AM0.0 °F0.0 °F30.24 in10.0 miNW (320°)13.8 mphClear
11:35 AM0.0 °F0.0 °F30.24 in10.0 miNNW (340°)15.0 mph25.3 mphClear
11:55 AM0.0 °F0.0 °F30.23 in10.0 miNNW (330°)16.1 mph20.7 mphClear
12:15 PM0.0 °F0.0 °F30.23 in10.0 miNNW (340°)12.7 mph23.0 mphClear
12:35 PM0.0 °F0.0 °F30.22 in10.0 miNW (320°)10.4 mph20.7 mphClear
12:55 PM0.0 °F0.0 °F30.21 in10.0 miNNW (330°)12.7 mph20.7 mphClear
1:15 PM0.0 °F0.0 °F30.21 in10.0 miNNW (330°)13.8 mph23.0 mphClear
1:35 PM0.0 °F0.0 °F30.21 in10.0 miNorth (350°)18.4 mph23.0 mphClear
1:55 PM0.0 °F0.0 °F30.20 in10.0 miNNW (340°)8.1 mph19.6 mphClear
2:15 PM0.0 °F0.0 °F30.19 in10.0 miNNW (330°)10.4 mph16.1 mphClear
2:35 PM0.0 °F0.0 °F30.19 in10.0 miNW (310°)4.6 mph16.1 mphClear
2:55 PM0.0 °F0.0 °F30.19 in10.0 miNNW (330°)10.4 mphClear
3:15 PM0.0 °F0.0 °F30.19 in10.0 miNorth (10°)9.2 mphClear
3:35 PM0.0 °F0.0 °F30.19 in10.0 miWNW (300°)13.8 mph18.4 mphClear
3:55 PM0.0 °F0.0 °F30.18 in10.0 miWNW (290°)5.8 mphClear
4:15 PM0.0 °F0.0 °F30.18 in10.0 miNW (310°)8.1 mphClear
4:35 PM0.0 °F0.0 °F30.19 in10.0 miNW (310°)9.2 mphClear
4:55 PM0.0 °F0.0 °F30.18 in10.0 miNNW (330°)3.5 mphClear
5:15 PM0.0 °F0.0 °F30.19 in10.0 miNW (310°)8.1 mphClear
5:35 PM0.0 °F0.0 °F30.19 in10.0 miNW (320°)4.6 mphClear
5:55 PM0.0 °F0.0 °F30.19 in10.0 miWNW (300°)5.8 mphClear
6:15 PM0.0 °F0.0 °F30.19 in10.0 miNNW (340°)5.8 mphClear
6:35 PM0.0 °F0.0 °F30.20 in10.0 miNorth (360°)3.5 mphClear
6:55 PM0.0 °F0.0 °F30.20 in10.0 miCalmClear
7:15 PM0.0 °F0.0 °F30.20 in10.0 miCalmClear
7:35 PM0.0 °F0.0 °F30.21 in10.0 miCalmClear
7:55 PM0.0 °F0.0 °F30.21 in10.0 miWSW (240°)3.5 mphClear
8:15 PM0.0 °F0.0 °F30.21 in10.0 miCalmScattered Clouds
8:35 PM0.0 °F0.0 °F30.22 in10.0 miCalmClear
8:55 PM0.0 °F0.0 °F30.22 in10.0 miCalmClear
9:15 PM0.0 °F0.0 °F30.21 in10.0 miCalmClear
9:35 PM0.0 °F0.0 °F30.21 in10.0 miCalmClear
9:55 PM0.0 °F0.0 °F30.22 in10.0 miSSE (150°)4.6 mphClear
10:15 PM0.0 °F0.0 °F30.22 in10.0 miSE (130°)5.8 mphClear
10:35 PM0.0 °F0.0 °F30.22 in10.0 miSE (130°)4.6 mphScattered Clouds
10:55 PM0.0 °F0.0 °F30.21 in10.0 miSE (130°)4.6 mphClear
11:15 PM0.0 °F0.0 °F30.21 in10.0 miSE (130°)6.9 mphClear
11:35 PM0.0 °F0.0 °F30.21 in10.0 miSE (140°)5.8 mphClear
11:55 PM0.0 °F0.0 °F30.21 in10.0 miSSE (150°)5.8 mphClear
Hourly data recorded from K8A0, located miles away from Walnut Grove, Alabama







STORIES FROM OUR PARTNERS